When you browse on this site, cookies collect data to enhance your experience and personalize the content and advertising you see.
Visit our Privacy Policy to learn more. By continuing to use the site, you agree to this use of cookies and data.
  • In United Kingdom
  • List of Countries
  • For 7 days
  • Water Temperature
  • Weather Map
  • Weather Widgets
  • user-avatar
    Login

    Hourly Weather Ghanzi

    Today, 23 February, Sunday

    Time Temperature Precipitation Wind Pressure Humidity
    00:00 +14°C° 0 mm 5 mps 719 mmHg 42%
    01:00 +13°C° 0 mm 6 mps 719 mmHg 45%
    02:00 +12°C° 0 mm 5 mps 719 mmHg 47%
    03:00 +12°C° 0 mm 5 mps 719 mmHg 50%
    04:00 +10°C° 0 mm 5 mps 719 mmHg 52%
    05:00 +10°C° 0 mm 5 mps 719 mmHg 52%
    06:00 +10°C° 0 mm 5 mps 719 mmHg 52%
    07:00 +12°C° 0 mm 5 mps 720 mmHg 52%
    08:00 +13°C° 0 mm 5 mps 720 mmHg 46%
    09:00 +15°C° 0 mm 6 mps 721 mmHg 41%
    10:00 +17°C° 0 mm 7 mps 721 mmHg 35%
    11:00 +19°C° 0 mm 6 mps 721 mmHg 32%
    12:00 +20°C° 0 mm 6 mps 720 mmHg 28%
    13:00 +21°C° 0 mm 6 mps 719 mmHg 25%
    14:00 +21°C° 0 mm 7 mps 719 mmHg 24%
    15:00 +21°C° 0 mm 7 mps 719 mmHg 24%
    16:00 +21°C° 0 mm 7 mps 718 mmHg 24%
    17:00 +18°C° 0 mm 7 mps 718 mmHg 26%
    18:00 +17°C° 0 mm 7 mps 719 mmHg 29%
    19:00 +15°C° 0 mm 6 mps 719 mmHg 31%
    20:00 +14°C° 0 mm 7 mps 719 mmHg 35%
    21:00 +12°C° 0 mm 8 mps 720 mmHg 39%
    22:00 +11°C° 0 mm 9 mps 721 mmHg 43%
    23:00 +10°C° 0 mm 7 mps 721 mmHg 48%

    Tomorrow, 24 February, Monday

    Time Temperature Precipitation Wind Pressure Humidity
    00:00 +9°C° 0 mm 6 mps 720 mmHg 53%
    01:00 +8°C° 0 mm 5 mps 720 mmHg 58%
    02:00 +7°C° 0 mm 5 mps 720 mmHg 59%
    03:00 +7°C° 0 mm 6 mps 720 mmHg 59%
    04:00 +5°C° 0 mm 6 mps 720 mmHg 60%
    05:00 +5°C° 0 mm 6 mps 720 mmHg 59%
    06:00 +5°C° 0 mm 6 mps 721 mmHg 57%
    07:00 +5°C° 0 mm 6 mps 721 mmHg 55%
    08:00 +8°C° 0 mm 7 mps 722 mmHg 48%
    09:00 +10°C° 0 mm 8 mps 722 mmHg 40%
    10:00 +12°C° 0 mm 8 mps 722 mmHg 33%
    11:00 +15°C° 0 mm 8 mps 721 mmHg 29%
    12:00 +16°C° 0 mm 8 mps 720 mmHg 24%
    13:00 +17°C° 0 mm 8 mps 719 mmHg 20%
    14:00 +17°C° 0 mm 8 mps 719 mmHg 21%
    15:00 +17°C° 0 mm 8 mps 719 mmHg 22%
    16:00 +17°C° 0 mm 8 mps 719 mmHg 22%
    17:00 +16°C° 0 mm 7 mps 719 mmHg 26%
    18:00 +14°C° 0 mm 6 mps 719 mmHg 29%
    19:00 +12°C° 0 mm 5 mps 719 mmHg 32%
    20:00 +12°C° 0 mm 5 mps 720 mmHg 35%
    21:00 +10°C° 0 mm 5 mps 720 mmHg 38%
    22:00 +9°C° 0 mm 5 mps 720 mmHg 41%
    23:00 +8°C° 0 mm 4 mps 720 mmHg 47%

    Day after tomorrow, 25 February, Tuesday

    Time Temperature Precipitation Wind Pressure Humidity
    00:00 +7°C° 0 mm 4 mps 720 mmHg 52%
    01:00 +7°C° 0 mm 4 mps 720 mmHg 58%
    02:00 +6°C° 0 mm 4 mps 720 mmHg 62%
    03:00 +6°C° 0 mm 4 mps 720 mmHg 66%
    04:00 +5°C° 0 mm 4 mps 720 mmHg 70%
    05:00 +5°C° 0 mm 4 mps 720 mmHg 70%
    06:00 +7°C° 0 mm 3 mps 720 mmHg 69%
    07:00 +7°C° 0 mm 3 mps 720 mmHg 68%
    08:00 +8°C° 0 mm 4 mps 721 mmHg 58%
    09:00 +12°C° 0 mm 4 mps 721 mmHg 47%
    10:00 +14°C° 0 mm 5 mps 722 mmHg 37%
    11:00 +16°C° 0 mm 5 mps 721 mmHg 32%
    12:00 +17°C° 0 mm 5 mps 720 mmHg 26%
    13:00 +20°C° 0 mm 5 mps 719 mmHg 21%
    14:00 +20°C° 0 mm 5 mps 719 mmHg 20%
    15:00 +21°C° 0 mm 5 mps 719 mmHg 19%
    16:00 +21°C° 0 mm 5 mps 718 mmHg 18%
    17:00 +19°C° 0 mm 5 mps 718 mmHg 21%
    18:00 +17°C° 0 mm 4 mps 718 mmHg 23%
    19:00 +14°C° 0 mm 4 mps 718 mmHg 26%
    20:00 +14°C° 0 mm 4 mps 718 mmHg 28%
    21:00 +13°C° 0 mm 4 mps 718 mmHg 30%
    22:00 +12°C° 0 mm 3 mps 719 mmHg 32%
    23:00 +12°C° 0 mm 3 mps 718 mmHg 33%

    26 February, Wednesday

    Time Temperature Precipitation Wind Pressure Humidity
    00:00 +11°C° 0 mm 3 mps 718 mmHg 34%
    01:00 +11°C° 0 mm 3 mps 718 mmHg 35%
    02:00 +10°C° 0 mm 3 mps 718 mmHg 35%
    03:00 +10°C° 0 mm 3 mps 717 mmHg 35%
    04:00 +9°C° 0 mm 2 mps 717 mmHg 35%
    05:00 +10°C° 0 mm 2 mps 717 mmHg 33%
    06:00 +10°C° 0 mm 2 mps 718 mmHg 32%
    07:00 +10°C° 0 mm 2 mps 718 mmHg 31%
    08:00 +14°C° 0 mm 2 mps 719 mmHg 26%
    09:00 +16°C° 0 mm 2 mps 719 mmHg 22%
    10:00 +19°C° 0 mm 2 mps 719 mmHg 18%
    11:00 +20°C° 0 mm 2 mps 718 mmHg 16%
    12:00 +23°C° 0 mm 1 mps 718 mmHg 13%
    13:00 +24°C° 0 mm 1 mps 717 mmHg 11%
    14:00 +25°C° 0 mm 1 mps 716 mmHg 11%
    15:00 +25°C° 0 mm 1 mps 716 mmHg 11%
    16:00 +26°C° 0 mm 1 mps 715 mmHg 10%
    17:00 +23°C° 0 mm 1 mps 715 mmHg 13%
    18:00 +20°C° 0 mm 1 mps 715 mmHg 15%
    19:00 +16°C° 0 mm 1 mps 715 mmHg 18%
    20:00 +16°C° 0 mm 2 mps 715 mmHg 18%
    21:00 +16°C° 0 mm 2 mps 716 mmHg 19%
    22:00 +16°C° 0 mm 3 mps 716 mmHg 19%
    23:00 +16°C° 0 mm 2 mps 716 mmHg 21%

    27 February, Thursday

    Time Temperature Precipitation Wind Pressure Humidity
    00:00 +15°C° 0 mm 2 mps 716 mmHg 22%
    01:00 +14°C° 0 mm 2 mps 716 mmHg 24%
    02:00 +14°C° 0 mm 2 mps 715 mmHg 25%
    03:00 +13°C° 0 mm 2 mps 715 mmHg 26%
    04:00 +12°C° 0 mm 2 mps 715 mmHg 27%
    05:00 +13°C° 0 mm 2 mps 716 mmHg 26%
    06:00 +14°C° 0 mm 2 mps 716 mmHg 25%
    07:00 +15°C° 0 mm 2 mps 717 mmHg 24%
    08:00 +18°C° 0 mm 2 mps 717 mmHg 21%
    09:00 +20°C° 0 mm 3 mps 718 mmHg 17%
    10:00 +24°C° 0 mm 3 mps 718 mmHg 14%
    11:00 +26°C° 0 mm 2 mps 718 mmHg 13%
    12:00 +27°C° 0 mm 1 mps 717 mmHg 11%
    13:00 +26°C° 0 mm 0 mps 716 mmHg 10%
    14:00 +29°C° 0 mm 1 mps 716 mmHg 10%
    15:00 +29°C° 0 mm 1 mps 716 mmHg 10%
    16:00 +29°C° 0 mm 1 mps 715 mmHg 9%
    17:00 +27°C° 0 mm 2 mps 715 mmHg 11%
    18:00 +25°C° 0 mm 2 mps 715 mmHg 13%
    19:00 +21°C° 0 mm 3 mps 715 mmHg 15%
    20:00 +21°C° 0 mm 3 mps 716 mmHg 15%
    21:00 +20°C° 0 mm 3 mps 716 mmHg 16%
    22:00 +20°C° 0 mm 3 mps 716 mmHg 17%
    23:00 +19°C° 0 mm 3 mps 716 mmHg 18%

    28 February, Friday

    Time Temperature Precipitation Wind Pressure Humidity
    00:00 +18°C° 0 mm 3 mps 716 mmHg 19%
    01:00 +17°C° 0 mm 2 mps 716 mmHg 20%
    02:00 +17°C° 0 mm 3 mps 716 mmHg 20%
    03:00 +16°C° 0 mm 3 mps 716 mmHg 21%
    04:00 +16°C° 0 mm 3 mps 716 mmHg 21%
    05:00 +15°C° 0 mm 4 mps 716 mmHg 21%
    06:00 +15°C° 0 mm 4 mps 717 mmHg 21%
    07:00 +15°C° 0 mm 4 mps 718 mmHg 21%
    08:00 +19°C° 0 mm 4 mps 718 mmHg 18%
    09:00 +22°C° 0 mm 4 mps 719 mmHg 15%
    10:00 +26°C° 0 mm 4 mps 719 mmHg 12%
    11:00 +27°C° 0 mm 4 mps 719 mmHg 11%
    12:00 +29°C° 0 mm 4 mps 718 mmHg 10%
    13:00 +30°C° 0 mm 4 mps 718 mmHg 9%
    14:00 +30°C° 0 mm 4 mps 717 mmHg 9%
    15:00 +30°C° 0 mm 5 mps 717 mmHg 9%
    16:00 +30°C° 0 mm 5 mps 717 mmHg 8%
    17:00 +28°C° 0 mm 5 mps 717 mmHg 10%
    18:00 +26°C° 0 mm 5 mps 717 mmHg 12%
    19:00 +23°C° 0 mm 5 mps 717 mmHg 13%
    20:00 +22°C° 0 mm 5 mps 717 mmHg 14%
    21:00 +21°C° 0 mm 5 mps 718 mmHg 16%
    22:00 +20°C° 0 mm 5 mps 718 mmHg 17%
    23:00 +19°C° 0 mm 5 mps 718 mmHg 19%
    Show more